Vorticity
7 5 4 6 6 7 6 5 4 2 3 4 4 5 6 7 6 3 4 6 6 10
4 6 7 6 9 5 6 3 1 6 6 5 5 3 4 4 5 6 8 11 10 11
7 4 4 11 3 6 2 2 11 5 6 6 4 4 5 5 6 10 11 12 12 15
2 4 13 4 6 4 6 6 8 7 6 4 4 4 5 7 9 13 15 11 20 7
12 13 1 7 7 3 5 7 2 6 8 7 5 3 4 11 15 15 13 16 3 3
1 3 7 9 -5 1 2 -6 17 7 5 2 4 8 8 16 13 12 14 4 1 8
19 22 8 0 22 12 7 18 9 3 4 7 7 7 21 14 12 15 3 6 7 3
-2 -1 9 13 7 7 8 1 3 4 6 11 5 25 12 12 12 3 4 4 4 3
-5 -4 31 -0 8 13 12 4 7 8 11 15 25 9 16 3 5 3 7 4 6 6
24 10 -8 6 8 9 8 8 11 9 24 17 6 17 2 1 4 7 9 11 11 15
-5 -4 20 10 10 12 11 8 18 29 9 7 11 4 4 8 10 11 11 15 15 12
31 18 18 13 6 7 24 25 10 6 10 3 4 9 13 10 13 10 14 14 8 11
4 5 12 15 33 19 8 4 6 10 5 8 17 13 10 11 11 15 10 7 12 12
9 22 29 13 5 4 8 9 9 10 18 14 8 9 9 11 13 8 10 11 12 17
Height
5661 5662 5663 5663 5663 5663 5662 5662 5660 5658 5657 5654 5651 5648 5644 5640 5636 5631 5626 5622 5618 5614
5648 5648 5649 5649 5649 5648 5648 5647 5646 5644 5642 5638 5635 5632 5627 5623 5618 5613 5609 5604 5600 5594
5634 5635 5635 5635 5635 5634 5634 5633 5632 5629 5626 5622 5618 5614 5610 5605 5600 5595 5590 5585 5581 5574
5620 5621 5621 5620 5620 5620 5620 5618 5615 5612 5608 5605 5601 5597 5592 5587 5583 5578 5572 5567 5563 5556
5604 5604 5605 5606 5606 5605 5604 5601 5598 5595 5591 5588 5584 5580 5576 5571 5566 5561 5556 5551 5546 5539
5590 5591 5591 5591 5590 5589 5587 5585 5581 5578 5575 5572 5567 5562 5558 5555 5550 5545 5539 5534 5528 5521
5576 5576 5576 5576 5574 5571 5569 5567 5564 5561 5558 5554 5550 5546 5542 5538 5534 5529 5523 5516 5509 5501
5561 5560 5559 5557 5555 5553 5551 5549 5547 5543 5540 5537 5533 5530 5526 5523 5519 5512 5505 5497 5489 5480
5542 5542 5541 5539 5538 5536 5535 5532 5530 5526 5523 5520 5518 5515 5511 5508 5503 5495 5488 5480 5470 5460
5524 5524 5524 5523 5522 5520 5518 5516 5514 5511 5507 5505 5505 5501 5496 5491 5485 5477 5469 5462 5452 5442
5509 5508 5508 5507 5506 5504 5502 5499 5498 5497 5494 5491 5490 5485 5479 5473 5467 5459 5451 5442 5432 5423
5493 5493 5492 5491 5491 5489 5488 5485 5483 5482 5481 5477 5473 5468 5462 5456 5450 5442 5435 5423 5412 5404
5478 5479 5478 5478 5477 5475 5474 5471 5469 5468 5466 5463 5458 5452 5447 5440 5434 5427 5417 5407 5398 5385
5464 5466 5465 5465 5465 5464 5461 5458 5455 5453 5451 5447 5443 5437 5431 5423 5414 5407 5402 5392 5381 5369